Regional Weather Roundup
Issued by NWS Raleigh/Durham, NC

Home | Current Version | Previous Version | Text Only | Print | Product List | Glossary On
Versions: 1 2 3 4 5 6 7 8 9 10 11 12 13 14 15 16 17 18 19 20 21 22 23 24 25 26 27 28 29 30 31 32 33 34 35 36 37 38 39 40 41 42 43 44 45 46 47 48 49 50
000
ASUS42 KRAH 302310
RWRRAH
NORTH CAROLINA WEATHER ROUNDUP
NATIONAL WEATHER SERVICE RALEIGH NC
700 PM EDT SAT JUL 30 2016

NOTE: "FAIR" INDICATES FEW OR NO CLOUDS BELOW 12,000 FEET WITH NO
SIGNIFICANT WEATHER AND/OR OBSTRUCTIONS TO VISIBILITY.

NCZ001-053-055-056-065-067-310000-
WESTERN NORTH CAROLINA

CITY           SKY/WX    TMP DP  RH WIND       PRES   REMARKS
ASHEVILLE      CLOUDY    75  67  76 VRB5      30.07F
JEFFERSON      SUNNY     77  63  61 W5        30.11S
MORGANTON      CLOUDY    77  71  80 S6        30.05R
HICKORY        LGT RAIN  78  72  81 S7        30.00R
RUTHERFORDTON    N/A     72  72 100 CALM      30.02R
MOUNT AIRY     MOSUNNY   78  74  88 CALM      30.01S
BOONE          CLOUDY    78  61  55 NW8       30.11F
$$

NCZ021-022-025-041-071-084-088-310000-
CENTRAL NORTH CAROLINA

CITY           SKY/WX    TMP DP  RH WIND       PRES   REMARKS
CHARLOTTE      CLOUDY    87  69  54 W6        29.96S
GREENSBORO     CLOUDY    89  68  49 N5        29.96R
WINSTON-SALEM  MOSUNNY   87  71  58 N6        29.98R
RALEIGH-DURHAM CLOUDY    88  75  65 CALM      29.92F HX  97
FORT BRAGG     TSTM      81  75  83 NW17      29.94R
FAYETTEVILLE   CLOUDY    92  70  48 SW10      29.93R HX  97
BURLINGTON     SUNNY     90  70  51 NW3       29.93R HX  95
LAURINBURG     CLOUDY    82  75  79 W15       29.96R
$$

NCZ011-015-027-028-043-044-047-080-103-310000-
NORTHEASTERN NORTH CAROLINA

CITY           SKY/WX    TMP DP  RH WIND       PRES   REMARKS
ROCKY MT-WILSO CLOUDY    82  76  81 NE12G23   29.93R
GREENVILLE     CLOUDY    82  77  83 SE6       29.96R
WASHINGTON     CLOUDY    78  75  88 SE5       29.95R
ELIZABETH CITY LGT RAIN  75  73  93 NW6       29.99R
MANTEO         LGT RAIN  74  74 100 CALM      29.98F
CAPE HATTERAS  LGT RAIN  79  75  87 SE7       29.97F
$$

NCZ078-087-090-091-093-098-101-310000-
SOUTHEASTERN NORTH CAROLINA

CITY           SKY/WX    TMP DP  RH WIND       PRES   REMARKS
LUMBERTON      CLOUDY    92  72  51 SW6       29.92S HX  99
GOLDSBORO      CLOUDY    95  71  45 W9        29.90F HX 101
KINSTON        CLOUDY    84  77  79 SE5       29.94S
KENANSVILLE    NOT AVBL
NEW BERN       CLOUDY    82  77  84 SE3       29.95S
CHERRY POINT   CLOUDY    85  79  82 S9        29.95S HX  98
BEAUFORT       CLOUDY    85  83  94 S12       29.95S HX 104
JACKSONVILLE   CLOUDY    90  76  63 S7        29.92S HX 101
WILMINGTON     MOSUNNY   92  71  50 SW16      29.94F HX  98
$$




USA.gov is the U.S. government's official web portal to all federal, state and local government web resources and services.